| time (UTC) | temp F | wind direction | speed MPH | gust MPH | rain 1hr in | rain 24hr in | rain mn in | humidity % | barometer mb |
| 20260505021543 | 47 | 299 | 0.0 | 0.0 | 0.23 | 0.00 | 0.28 | 99 | 1012.9 |
| 20260505020532 | 47 | 300 | 0.0 | 0.0 | 0.26 | 0.00 | 0.24 | 99 | 1012.9 |
| 20260505015524 | 47 | 300 | 0.0 | 0.0 | 0.11 | 0.00 | 0.19 | 99 | 1012.9 |
| 20260505014500 | 47 | 299 | 0.0 | 0.0 | 0.04 | 0.00 | 0.17 | 99 | 1012.9 |
| 20260505013436 | 47 | 300 | 0.0 | 0.0 | 0.07 | 0.00 | 0.16 | 99 | 1012.8 |
| 20260505012412 | 47 | 300 | 0.0 | 0.0 | 0.11 | 0.00 | 0.15 | 99 | 1012.9 |
| 20260505011404 | 47 | 300 | 0.0 | 0.0 | 0.23 | 0.00 | 0.13 | 99 | 1012.9 |
| 20260505010356 | 47 | 299 | 0.0 | 0.0 | 0.18 | 0.00 | 0.09 | 99 | 1013.1 |
| 20260505005333 | 47 | 299 | 0.0 | 0.0 | 0.11 | 0.00 | 0.06 | 99 | 1013.2 |
| 20260505004324 | 47 | 299 | 0.0 | 0.0 | 0.11 | 0.00 | 0.04 | 99 | 1013.4 |
| 20260505003316 | 47 | 299 | 0.0 | 0.0 | 0.04 | 0.00 | 0.02 | 99 | 1013.3 |
| 20260505002308 | 47 | 299 | 0.0 | 0.0 | 0.07 | 0.00 | 0.02 | 99 | 1013.3 |
| 20260505001300 | 47 | 299 | 0.0 | 0.0 | 0.07 | 0.00 | 0.02 | 99 | 1013.5 |
| 20260505000252 | 47 | 299 | 0.0 | 0.0 | 0.00 | 0.00 | 0.00 | 99 | 1013.7 |
| 20260504235241 | 47 | 299 | 0.0 | 0.0 | 0.00 | 0.00 | 0.00 | 99 | 1014.1 |
| 20260504234204 | 47 | 299 | 0.0 | 0.0 | 0.04 | 0.00 | 0.00 | 99 | 1014.2 |
| 20260504233141 | 47 | 299 | 0.0 | 0.0 | 0.00 | 0.00 | 0.00 | 99 | 1014.3 |
| 20260504232132 | 47 | 299 | 0.0 | 0.0 | 0.00 | 0.00 | 0.00 | 99 | 1014.3 |
| 20260504231124 | 47 | 299 | 0.0 | 0.0 | 0.00 | 0.00 | 0.00 | 99 | 1014.6 |
| 20260504230116 | 47 | 299 | 0.0 | 0.0 | 0.07 | 0.00 | 0.00 | 99 | 1014.8 |
| 20260504225108 | 47 | 299 | 0.0 | 0.0 | 0.00 | 0.00 | 0.31 | 99 | 1015.0 |
| 20260504224100 | 47 | 299 | 0.0 | 0.0 | 0.07 | 0.00 | 0.31 | 99 | 1015.0 |
| 20260504223036 | 48 | 299 | 1.0 | 2.0 | 0.11 | 0.00 | 0.29 | 99 | 1014.9 |
| 20260504222028 | 48 | 298 | 1.0 | 2.0 | 0.04 | 0.00 | 0.28 | 99 | 1015.1 |
| 20260504221005 | 48 | 299 | 0.0 | 0.0 | 0.07 | 0.00 | 0.27 | 99 | 1015.2 |
| 20260504215956 | 48 | 299 | 0.0 | 0.0 | 0.11 | 0.00 | 0.26 | 99 | 1015.3 |
| 20260504214948 | 48 | 299 | 0.0 | 1.0 | 0.00 | 0.00 | 0.24 | 99 | 1015.4 |
| 20260504212932 | 48 | 300 | 0.0 | 0.0 | 0.04 | 0.00 | 0.24 | 99 | 1015.2 |
| 20260504211909 | 48 | 300 | 0.0 | 0.0 | 0.00 | 0.00 | 0.23 | 99 | 1015.4 |
| 20260504210900 | 48 | 300 | 0.0 | 0.0 | 0.00 | 0.00 | 0.23 | 99 | 1015.7 |
| 20260504205852 | 48 | 300 | 0.0 | 0.0 | 0.07 | 0.00 | 0.23 | 99 | 1015.3 |
| 20260504204840 | 48 | 300 | 0.0 | 0.0 | 0.04 | 0.00 | 0.22 | 99 | 1015.4 |
| 20260504203821 | 48 | 300 | 0.0 | 0.0 | 0.07 | 0.00 | 0.21 | 99 | 1015.7 |
| 20260504202757 | 48 | 300 | 0.0 | 0.0 | 0.00 | 0.00 | 0.20 | 99 | 1015.6 |
| 20260504201733 | 48 | 300 | 0.0 | 0.0 | 0.00 | 0.00 | 0.20 | 99 | 1015.4 |
| 20260504200709 | 48 | 300 | 0.0 | 0.0 | 0.04 | 0.00 | 0.20 | 99 | 1015.6 |
| 20260504195645 | 48 | 299 | 1.0 | 1.0 | 0.00 | 0.00 | 0.19 | 99 | 1015.5 |
| 20260504194636 | 48 | 300 | 2.0 | 3.0 | 0.18 | 0.00 | 0.19 | 99 | 1015.5 |
| 20260504193628 | 48 | 299 | 1.0 | 2.0 | 0.23 | 0.00 | 0.16 | 99 | 1015.6 |
| 20260504192620 | 48 | 300 | 1.0 | 2.0 | 0.16 | 0.00 | 0.13 | 99 | 1015.4 |
| 20260504191557 | 50 | 300 | 0.0 | 0.0 | 0.07 | 0.00 | 0.10 | 99 | 1015.2 |
| 20260504190540 | 50 | 300 | 0.0 | 0.0 | 0.00 | 0.00 | 0.09 | 99 | 1015.3 |
| 20260504185525 | 50 | 300 | 0.0 | 0.0 | 0.04 | 0.00 | 0.09 | 99 | 1015.2 |
| 20260504184501 | 50 | 300 | 0.0 | 0.0 | 0.00 | 0.00 | 0.08 | 99 | 1015.2 |
| 20260504183437 | 50 | 300 | 0.0 | 0.0 | 0.00 | 0.00 | 0.08 | 99 | 1015.2 |
| 20260504182428 | 50 | 300 | 0.0 | 0.0 | 0.07 | 0.00 | 0.08 | 99 | 1015.3 |
| 20260504181405 | 50 | 300 | 0.0 | 0.0 | 0.04 | 0.00 | 0.07 | 99 | 1015.4 |
| 20260504180356 | 50 | 300 | 0.0 | 0.0 | 0.00 | 0.00 | 0.06 | 99 | 1015.2 |
| 20260504175340 | 50 | 300 | 0.0 | 0.0 | 0.07 | 0.00 | 0.06 | 98 | 1015.2 |
| 20260504174325 | 51 | 300 | 0.0 | 0.0 | 0.07 | 0.00 | 0.05 | 98 | 1015.0 |
| 20260504173301 | 51 | 300 | 0.0 | 0.0 | 0.00 | 0.00 | 0.03 | 97 | 1015.2 |
| 20260504172241 | 51 | 300 | 1.0 | 2.0 | 0.04 | 0.00 | 0.03 | 96 | 1015.2 |
| 20260504171228 | 51 | 300 | 1.0 | 2.0 | 0.07 | 0.00 | 0.03 | 96 | 1015.1 |
| 20260504170204 | 51 | 300 | 2.0 | 3.0 | 0.04 | 0.00 | 0.02 | 94 | 1015.2 |
| 20260504150901 | 56 | 298 | 4.0 | 5.0 | 0.00 | 0.00 | 0.00 | 74 | 1015.1 |
| 20260504140652 | 61 | 301 | 2.0 | 2.0 | 0.00 | 0.00 | 0.00 | 63 | 1015.2 |
| 20260504130501 | 59 | 301 | 1.0 | 3.0 | 0.00 | 0.00 | 0.00 | 68 | 1015.7 |
| 20260504120253 | 56 | 301 | 2.0 | 4.0 | 0.00 | 0.00 | 0.00 | 76 | 1016.2 |
| 20260504081541 | 56 | 300 | 0.0 | 0.0 | 0.00 | 0.00 | 0.00 | 80 | 1016.1 |
| 20260504080517 | 56 | 300 | 1.0 | 2.0 | 0.00 | 0.00 | 0.00 | 81 | 1016.3 |
| 20260504070325 | 54 | 299 | 0.0 | 0.0 | 0.00 | 0.00 | 0.00 | 80 | 1015.9 |
| 20260504060133 | 51 | 299 | 0.0 | 0.0 | 0.00 | 0.00 | 0.00 | 89 | 1015.6 |
| 20260504045021 | 50 | 299 | 0.0 | 0.0 | 0.00 | 0.00 | 0.00 | 89 | 1015.2 |
| 20260504043958 | 50 | 299 | 0.0 | 0.0 | 0.00 | 0.00 | 0.00 | 89 | 1015.0 |
| 20260504042949 | 50 | 299 | 0.0 | 0.0 | 0.00 | 0.00 | 0.00 | 89 | 1015.3 |
| 20260504041941 | 51 | 299 | 0.0 | 0.0 | 0.00 | 0.00 | 0.00 | 86 | 1015.1 |
| 20260504040933 | 50 | 299 | 0.0 | 0.0 | 0.00 | 0.00 | 0.00 | 87 | 1015.1 |
| 20260504035925 | 50 | 299 | 0.0 | 0.0 | 0.00 | 0.00 | 0.00 | 88 | 1015.3 |
| 20260504034917 | 50 | 299 | 1.0 | 1.0 | 0.00 | 0.00 | 0.00 | 88 | 1015.1 |
| 20260504033909 | 50 | 299 | 0.0 | 0.0 | 0.00 | 0.00 | 0.00 | 89 | 1015.2 |
| 20260504032901 | 50 | 299 | 0.0 | 0.0 | 0.00 | 0.00 | 0.00 | 88 | 1015.1 |
| 20260504031843 | 51 | 299 | 0.0 | 0.0 | 0.00 | 0.00 | 0.00 | 86 | 1015.2 |
| 20260504030830 | 50 | 299 | 1.0 | 2.0 | 0.00 | 0.00 | 0.00 | 86 | 1015.0 |
| 20260504025806 | 50 | 299 | 0.0 | 0.0 | 0.00 | 0.00 | 0.00 | 88 | 1015.3 |
| 20260504024757 | 50 | 299 | 0.0 | 0.0 | 0.00 | 0.00 | 0.00 | 88 | 1015.6 |
| 20260504023749 | 50 | 299 | 0.0 | 0.0 | 0.00 | 0.00 | 0.00 | 89 | 1015.4 |
| 20260504022740 | 51 | 299 | 0.0 | 0.0 | 0.00 | 0.00 | 0.00 | 86 | 1015.8 |